Tracking 19717 objects as of 25-Jun-2019
HD Live streaming from Space Station
objects crossing your sky now

SL-12 R/B(2)

Track SL-12 R/B(2) now!


NORAD ID: 19094
Int'l Code: 1988-036E
Perigee: 35,470.7 km
Apogee: 35,648.7 km
Inclination: 13.8 °
Period: 1,424.2 minutes
Semi major axis: 41930 km
RCS: 2.2903 m2 (large)
Launch date: May 6, 1988
Source: Commonwealth of Independent States (former USSR) (CIS)
Launch site: TYURATAM MISSILE AND SPACE COMPLEX (TTMTR)

Note: This is a ROCKET BODY
aabbcc
Your satellite tracking list
Your tracking list is empty




NASA's NSSDC Master Catalog

Two Line Element Set (TLE):
1 19094U 88036E   19174.86644252 -.00000180 +00000-0 +00000-0 0  9997
2 19094 013.7502 343.8210 0021221 109.4424 265.4275 01.01112469096041
Source of the keplerian elements: AFSPC